UAE236 OMDB-LSGG

Flight info

Callsign UAE236
Flight time N/A
Altitude 40000
Route RIDAP M557 TUMAK L602 ALPET L718 DEBNI DCT SEVKU L718 KABAN UL718 ULSAB UG8 EZS UW710 VEVEN/N0492F430 UW710 SIV UA4 TIMOP UT97 ILHAN UT79 DEREL UL602 MAKOL DCT DOLAP DCT OBLAK DCT ROTAR DCT SRN/N0422F220 DCT AOSTA L615 BANKO
Aircraft A359/H-SDE2E3GHIJ3J4J5LM1ORWXY/LB1D1

Departure

Time 2026-04-24 13:11
Airport Dubai International Airport (OMDB)

Arrival

Time N/A
Airport Geneva International Airport (LSGG)
Time Latitude Longitude Altitude Speed Heading
2026-04-24 12:46 25.24764 55.36497 27 ft 0 kts 211°
2026-04-24 12:51 25.24758 55.36493 27 ft 4 kts 211°
2026-04-24 12:52 25.24733 55.36476 27 ft 4 kts 211°
2026-04-24 12:52 25.24707 55.36458 27 ft 4 kts 211°
2026-04-24 12:52 25.24681 55.36441 27 ft 4 kts 211°
2026-04-24 12:52 25.24655 55.36423 27 ft 4 kts 211°
2026-04-24 12:53 25.24764 55.36497 27 ft 0 kts 211°
2026-04-24 12:55 25.24780 55.36508 27 ft 4 kts 211°
2026-04-24 12:55 25.24803 55.36524 25 ft 4 kts 211°
2026-04-24 12:56 25.24822 55.36536 26 ft 4 kts 218°
2026-04-24 12:56 25.24837 55.36557 25 ft 4 kts 261°
2026-04-24 12:56 25.24834 55.36584 24 ft 4 kts 299°
2026-04-24 12:56 25.24821 55.36609 25 ft 4 kts 300°
2026-04-24 12:57 25.24817 55.36618 26 ft 4 kts 300°
2026-04-24 12:59 25.24819 55.36613 27 ft 5 kts 300°
2026-04-24 12:59 25.24855 55.36547 28 ft 16 kts 301°
2026-04-24 13:00 25.24919 55.36434 28 ft 18 kts 302°
2026-04-24 13:00 25.24987 55.36312 27 ft 19 kts 302°
2026-04-24 13:00 25.25054 55.36194 27 ft 18 kts 302°
2026-04-24 13:00 25.25122 55.36073 27 ft 19 kts 302°
2026-04-24 13:01 25.25195 55.35942 27 ft 21 kts 302°
2026-04-24 13:01 25.25250 55.35846 27 ft 15 kts 302°
2026-04-24 13:01 25.25307 55.35743 27 ft 17 kts 302°
2026-04-24 13:01 25.25370 55.35632 27 ft 18 kts 302°
2026-04-24 13:02 25.25438 55.35510 27 ft 19 kts 302°
2026-04-24 13:02 25.25505 55.35390 27 ft 17 kts 302°
2026-04-24 13:02 25.25568 55.35280 27 ft 15 kts 302°
2026-04-24 13:02 25.25621 55.35185 27 ft 14 kts 302°
2026-04-24 13:03 25.25692 55.35163 27 ft 10 kts 30°
2026-04-24 13:03 25.25759 55.35208 27 ft 12 kts 31°
2026-04-24 13:03 25.25839 55.35261 27 ft 14 kts 31°
2026-04-24 13:03 25.25931 55.35323 28 ft 16 kts 32°
2026-04-24 13:04 25.26002 55.35419 28 ft 18 kts 74°
2026-04-24 13:04 25.25988 55.35557 28 ft 19 kts 116°
2026-04-24 13:04 25.25924 55.35672 28 ft 17 kts 122°
2026-04-24 13:04 25.25856 55.35792 28 ft 20 kts 121°
2026-04-24 13:05 25.25789 55.35913 28 ft 19 kts 122°
2026-04-24 13:05 25.25721 55.36032 29 ft 18 kts 121°
2026-04-24 13:05 25.25653 55.36153 29 ft 16 kts 122°
2026-04-24 13:05 25.25590 55.36266 29 ft 19 kts 122°
2026-04-24 13:06 25.25517 55.36395 28 ft 21 kts 122°
2026-04-24 13:06 25.25443 55.36526 28 ft 20 kts 122°
2026-04-24 13:06 25.25382 55.36635 28 ft 16 kts 121°
2026-04-24 13:06 25.25319 55.36748 28 ft 18 kts 122°
2026-04-24 13:07 25.25247 55.36874 28 ft 21 kts 122°
2026-04-24 13:07 25.25186 55.36984 28 ft 15 kts 122°
2026-04-24 13:07 25.25127 55.37088 29 ft 17 kts 122°
2026-04-24 13:07 25.25061 55.37206 29 ft 19 kts 122°
2026-04-24 13:08 25.24986 55.37338 30 ft 21 kts 122°
2026-04-24 13:08 25.24923 55.37451 30 ft 18 kts 122°
2026-04-24 13:08 25.24863 55.37557 29 ft 17 kts 122°
2026-04-24 13:09 25.24734 55.37789 29 ft 17 kts 121°
2026-04-24 13:09 25.24679 55.37884 28 ft 13 kts 122°
2026-04-24 13:09 25.24666 55.37945 29 ft 8 kts 68°
2026-04-24 13:09 25.24709 55.37984 30 ft 9 kts 32°
2026-04-24 13:10 25.24765 55.38021 31 ft 9 kts 23°
2026-04-24 13:10 25.24821 55.37998 31 ft 9 kts 310°
2026-04-24 13:10 25.24876 55.37900 32 ft 34 kts 302°
2026-04-24 13:10 25.25135 55.37435 33 ft 105 kts 302°
2026-04-24 13:11 25.25625 55.36549 33 ft 164 kts 301°
2026-04-24 13:11 25.26255 55.35400 512 ft 180 kts 303°
2026-04-24 13:11 25.26916 55.34190 1214 ft 184 kts 304°
2026-04-24 13:11 25.27609 55.32952 1709 ft 195 kts 304°
2026-04-24 13:12 25.28361 55.31614 1897 ft 216 kts 303°
2026-04-24 13:12 25.29173 55.30161 2298 ft 227 kts 301°
2026-04-24 13:12 25.29841 55.28520 2637 ft 244 kts 285°
2026-04-24 13:12 25.30220 55.26623 2969 ft 259 kts 279°
2026-04-24 13:13 25.30499 55.24676 3553 ft 261 kts 278°
2026-04-24 13:13 25.30764 55.22691 4212 ft 261 kts 277°
2026-04-24 13:13 25.31022 55.20706 4854 ft 261 kts 277°
2026-04-24 13:13 25.31280 55.18718 5464 ft 262 kts 277°
2026-04-24 13:14 25.31537 55.16717 6072 ft 264 kts 277°
2026-04-24 13:14 25.31796 55.14702 6631 ft 266 kts 277°
2026-04-24 13:14 25.32057 55.12672 7175 ft 268 kts 277°
2026-04-24 13:14 25.32319 55.10623 7711 ft 270 kts 277°
2026-04-24 13:15 25.32579 55.08585 8259 ft 272 kts 277°
2026-04-24 13:15 25.32845 55.06505 8820 ft 274 kts 277°
2026-04-24 13:15 25.33112 55.04410 9383 ft 276 kts 277°
2026-04-24 13:15 25.33381 55.02299 9941 ft 279 kts 277°
2026-04-24 13:16 25.33655 55.00149 10288 ft 289 kts 277°
2026-04-24 13:16 25.33940 54.97896 10473 ft 303 kts 277°
2026-04-24 13:16 25.34238 54.95535 10649 ft 317 kts 277°
2026-04-24 13:16 25.34551 54.93068 10831 ft 330 kts 277°
2026-04-24 13:17 25.34961 54.90525 11001 ft 343 kts 283°
2026-04-24 13:17 25.35635 54.87965 11277 ft 350 kts 286°
2026-04-24 13:17 25.36370 54.85420 11646 ft 354 kts 286°
2026-04-24 13:17 25.37121 54.82825 12092 ft 355 kts 286°
2026-04-24 13:18 25.37870 54.80229 12614 ft 355 kts 286°
2026-04-24 13:18 25.38619 54.77623 13003 ft 357 kts 286°
2026-04-24 13:18 25.39373 54.74990 13403 ft 360 kts 286°
2026-04-24 13:18 25.40131 54.72338 13754 ft 363 kts 286°
2026-04-24 13:19 25.40897 54.69666 14113 ft 365 kts 286°
2026-04-24 13:19 25.41662 54.66984 14497 ft 366 kts 286°
2026-04-24 13:19 25.42417 54.64328 14875 ft 368 kts 286°
2026-04-24 13:19 25.43186 54.61623 15257 ft 369 kts 286°
2026-04-24 13:20 25.43970 54.58910 15639 ft 371 kts 287°
2026-04-24 13:20 25.44773 54.56191 16017 ft 373 kts 287°
2026-04-24 13:20 25.45586 54.53463 16406 ft 374 kts 287°
2026-04-24 13:20 25.46403 54.50722 16775 ft 376 kts 287°
2026-04-24 13:21 25.47222 54.47968 17142 ft 378 kts 288°
2026-04-24 13:21 25.48043 54.45199 17515 ft 379 kts 288°
2026-04-24 13:21 25.48865 54.42418 17897 ft 381 kts 288°
2026-04-24 13:21 25.49678 54.39664 18244 ft 383 kts 288°
2026-04-24 13:22 25.50506 54.36857 18588 ft 383 kts 287°
2026-04-24 13:22 25.51332 54.34050 18919 ft 385 kts 287°
2026-04-24 13:22 25.52163 54.31224 19213 ft 387 kts 287°
2026-04-24 13:22 25.52996 54.28386 19509 ft 389 kts 287°
2026-04-24 13:23 25.53832 54.25534 19816 ft 390 kts 287°
2026-04-24 13:23 25.54676 54.22668 20127 ft 392 kts 286°
2026-04-24 13:23 25.55522 54.19792 20438 ft 394 kts 286°
2026-04-24 13:23 25.56370 54.16901 20730 ft 396 kts 286°
2026-04-24 13:24 25.57209 54.14033 21020 ft 397 kts 286°
2026-04-24 13:24 25.58063 54.11115 21308 ft 399 kts 286°
2026-04-24 13:24 25.58921 54.08181 21591 ft 401 kts 286°
2026-04-24 13:24 25.59782 54.05237 21884 ft 403 kts 286°
2026-04-24 13:25 25.60636 54.02279 22165 ft 404 kts 285°
2026-04-24 13:25 25.61484 53.99300 22444 ft 406 kts 285°
2026-04-24 13:25 25.62329 53.96318 22825 ft 405 kts 285°
2026-04-24 13:25 25.63162 53.93377 23106 ft 406 kts 284°
2026-04-24 13:26 25.64010 53.90382 23365 ft 408 kts 284°
2026-04-24 13:26 25.64863 53.87374 23583 ft 410 kts 284°
2026-04-24 13:26 25.65720 53.84354 23814 ft 411 kts 284°
2026-04-24 13:26 25.66579 53.81328 24033 ft 413 kts 284°
2026-04-24 13:27 25.67442 53.78286 24265 ft 414 kts 284°
2026-04-24 13:27 25.68305 53.75243 24499 ft 415 kts 284°
2026-04-24 13:27 25.69172 53.72186 24753 ft 415 kts 284°
2026-04-24 13:27 25.70036 53.69133 25019 ft 415 kts 284°
2026-04-24 13:28 25.70885 53.66115 25235 ft 417 kts 284°
2026-04-24 13:28 25.71747 53.63042 25462 ft 418 kts 284°
2026-04-24 13:28 25.72611 53.59958 25682 ft 419 kts 284°
2026-04-24 13:28 25.73477 53.56868 25911 ft 420 kts 284°
2026-04-24 13:29 25.74346 53.53766 26142 ft 422 kts 284°
2026-04-24 13:29 25.75217 53.50653 26376 ft 423 kts 284°
2026-04-24 13:29 25.76096 53.47530 26573 ft 425 kts 284°
2026-04-24 13:29 25.76978 53.44392 26809 ft 427 kts 284°
2026-04-24 13:30 25.77848 53.41289 27049 ft 428 kts 284°
2026-04-24 13:30 25.78732 53.38133 27313 ft 429 kts 284°
2026-04-24 13:30 25.79620 53.34968 27559 ft 430 kts 284°
2026-04-24 13:30 25.80508 53.31792 27787 ft 432 kts 284°
2026-04-24 13:31 25.81399 53.28602 28032 ft 434 kts 284°
2026-04-24 13:31 25.82293 53.25400 28291 ft 435 kts 284°
2026-04-24 13:31 25.83188 53.22190 28578 ft 436 kts 284°
2026-04-24 13:31 25.84145 53.18990 28828 ft 439 kts 288°
2026-04-24 13:32 25.85321 53.15855 29072 ft 441 kts 290°
2026-04-24 13:32 25.86537 53.12767 29321 ft 443 kts 291°
2026-04-24 13:32 25.87801 53.09637 29578 ft 445 kts 291°
2026-04-24 13:32 25.89081 53.06503 29830 ft 447 kts 291°
2026-04-24 13:33 25.90370 53.03358 30076 ft 448 kts 291°
2026-04-24 13:33 25.91662 53.00200 30320 ft 450 kts 291°
2026-04-24 13:33 25.92956 52.97029 30533 ft 452 kts 291°
2026-04-24 13:33 25.94250 52.93848 30794 ft 453 kts 291°
2026-04-24 13:34 25.95545 52.90658 31060 ft 453 kts 291°
2026-04-24 13:34 25.96825 52.87501 31320 ft 455 kts 291°
2026-04-24 13:34 25.98123 52.84293 31567 ft 456 kts 291°
2026-04-24 13:34 25.99422 52.81081 31822 ft 457 kts 291°
2026-04-24 13:35 26.00726 52.77855 32065 ft 458 kts 291°
2026-04-24 13:35 26.02032 52.74621 32260 ft 460 kts 291°
2026-04-24 13:35 26.03384 52.71399 32571 ft 460 kts 293°
2026-04-24 13:35 26.04808 52.68216 32853 ft 460 kts 294°
2026-04-24 13:36 26.06265 52.65043 33079 ft 461 kts 294°
2026-04-24 13:36 26.07733 52.61863 33304 ft 462 kts 294°
2026-04-24 13:36 26.09172 52.58728 33649 ft 460 kts 294°
2026-04-24 13:36 26.10616 52.55560 34021 ft 458 kts 293°
2026-04-24 13:37 26.12042 52.52412 34400 ft 454 kts 293°
2026-04-24 13:37 26.13461 52.49272 34655 ft 454 kts 293°
2026-04-24 13:37 26.14877 52.46131 34931 ft 453 kts 293°
2026-04-24 13:37 26.16286 52.43004 35318 ft 450 kts 293°
2026-04-24 13:38 26.17680 52.39910 35839 ft 443 kts 292°
2026-04-24 13:38 26.19051 52.36869 36388 ft 437 kts 292°
2026-04-24 13:38 26.20388 52.33896 36769 ft 434 kts 292°
2026-04-24 13:38 26.21737 52.30893 37101 ft 433 kts 292°
2026-04-24 13:39 26.23072 52.27898 37434 ft 431 kts 292°
2026-04-24 13:39 26.24377 52.24902 37788 ft 429 kts 291°
2026-04-24 13:39 26.25660 52.21919 38158 ft 426 kts 291°
2026-04-24 13:39 26.26934 52.18949 38521 ft 424 kts 291°
2026-04-24 13:40 26.28202 52.15993 38787 ft 422 kts 291°
2026-04-24 13:40 26.29470 52.13042 38993 ft 422 kts 291°
2026-04-24 13:40 26.30720 52.10138 39180 ft 422 kts 291°
2026-04-24 13:40 26.31990 52.07191 39352 ft 422 kts 291°
2026-04-24 13:41 26.33266 52.04235 39500 ft 423 kts 291°
2026-04-24 13:41 26.34545 52.01274 39650 ft 424 kts 291°
2026-04-24 13:41 26.35824 51.98315 39822 ft 424 kts 291°
2026-04-24 13:41 26.37086 51.95346 39885 ft 423 kts 289°
2026-04-24 13:42 26.39244 51.89280 39888 ft 420 kts 287°
2026-04-24 13:42 26.41292 51.83220 39885 ft 420 kts 287°
2026-04-24 13:43 26.43335 51.77108 39886 ft 420 kts 287°
2026-04-24 13:43 26.45375 51.70992 39886 ft 421 kts 287°
2026-04-24 13:44 26.47423 51.64863 39888 ft 422 kts 287°
2026-04-24 13:44 26.49460 51.58769 39891 ft 422 kts 286°
2026-04-24 13:45 26.51500 51.52631 39881 ft 421 kts 286°
2026-04-24 13:45 26.53535 51.46497 39892 ft 421 kts 286°
2026-04-24 13:46 26.55568 51.40363 39900 ft 421 kts 286°
2026-04-24 13:46 26.57588 51.34263 39898 ft 421 kts 286°
2026-04-24 13:47 26.59620 51.28124 39894 ft 421 kts 286°
2026-04-24 13:47 26.61656 51.21986 39898 ft 421 kts 286°
2026-04-24 13:48 26.63685 51.15847 39898 ft 421 kts 286°
2026-04-24 13:48 26.65698 51.09750 39897 ft 421 kts 286°
2026-04-24 13:49 26.67723 51.03607 39900 ft 421 kts 286°
2026-04-24 13:49 26.69740 50.97459 39905 ft 421 kts 286°
2026-04-24 13:50 26.71708 50.91297 39904 ft 421 kts 285°
2026-04-24 13:50 26.73652 50.85174 39903 ft 420 kts 285°
2026-04-24 13:51 26.75609 50.79029 39907 ft 419 kts 285°
2026-04-24 13:51 26.77565 50.72891 39907 ft 419 kts 285°
2026-04-24 13:52 26.79686 50.66810 39909 ft 422 kts 291°
2026-04-24 13:52 26.82913 50.61251 39911 ft 429 kts 301°
2026-04-24 13:53 26.86622 50.56057 39911 ft 430 kts 303°
2026-04-24 13:53 26.90434 50.50886 39919 ft 430 kts 303°
2026-04-24 13:54 26.94328 50.45780 39920 ft 433 kts 306°
2026-04-24 13:54 26.98511 50.40897 39924 ft 434 kts 307°
2026-04-24 13:55 27.02692 50.36070 39919 ft 434 kts 307°
2026-04-24 13:55 27.06853 50.31166 39925 ft 434 kts 306°
2026-04-24 13:56 27.10960 50.26212 39927 ft 433 kts 306°
2026-04-24 13:56 27.15080 50.21270 39934 ft 436 kts 308°
2026-04-24 13:57 27.19775 50.16925 39928 ft 443 kts 315°
2026-04-24 13:57 27.24737 50.12786 39929 ft 445 kts 316°
2026-04-24 13:58 27.29740 50.08687 39927 ft 445 kts 316°
2026-04-24 13:58 27.34734 50.04581 39930 ft 445 kts 315°
2026-04-24 13:59 27.39680 50.00420 39929 ft 443 kts 314°
2026-04-24 13:59 27.44481 49.96159 39927 ft 442 kts 314°
2026-04-24 14:00 27.49312 49.91852 39960 ft 443 kts 313°
2026-04-24 14:00 27.54162 49.87559 39926 ft 444 kts 314°
2026-04-24 14:01 27.58990 49.83299 39922 ft 444 kts 314°
2026-04-24 14:01 27.63848 49.79012 39935 ft 444 kts 314°
2026-04-24 14:02 27.68702 49.74723 39934 ft 443 kts 313°
2026-04-24 14:02 27.73568 49.70415 39936 ft 445 kts 313°
2026-04-24 14:03 27.78447 49.66091 39930 ft 446 kts 313°
2026-04-24 14:03 27.83288 49.61787 39930 ft 446 kts 313°
2026-04-24 14:04 27.88148 49.57440 39936 ft 445 kts 313°
2026-04-24 14:04 27.92999 49.53096 39933 ft 445 kts 313°
2026-04-24 14:05 27.97861 49.48740 39930 ft 447 kts 313°
2026-04-24 14:05 28.02703 49.44400 39940 ft 447 kts 313°
2026-04-24 14:06 28.07561 49.40012 39933 ft 446 kts 312°
2026-04-24 14:06 28.12385 49.35594 39933 ft 446 kts 312°
2026-04-24 14:07 28.17208 49.31172 39930 ft 446 kts 312°
2026-04-24 14:07 28.22045 49.26745 39931 ft 448 kts 312°
2026-04-24 14:08 28.26860 49.22334 39933 ft 448 kts 312°
2026-04-24 14:08 28.31718 49.17889 39930 ft 449 kts 312°
2026-04-24 14:09 28.36569 49.13436 39937 ft 448 kts 311°
2026-04-24 14:09 28.41560 49.09177 39931 ft 450 kts 315°
2026-04-24 14:10 28.46705 49.05178 39933 ft 453 kts 316°
2026-04-24 14:10 28.51942 49.01167 39933 ft 454 kts 316°
2026-04-24 14:11 28.57174 48.97167 39928 ft 451 kts 316°
2026-04-24 14:12 28.64962 48.91187 39929 ft 450 kts 316°
2026-04-24 14:12 28.70111 48.87219 39954 ft 450 kts 316°
2026-04-24 14:13 28.75289 48.83226 39925 ft 449 kts 316°
2026-04-24 14:13 28.80457 48.79237 39922 ft 449 kts 316°
2026-04-24 14:14 28.85639 48.75262 39923 ft 449 kts 316°
2026-04-24 14:14 28.93388 48.69325 39925 ft 450 kts 316°
2026-04-24 14:15 28.98580 48.65341 39924 ft 450 kts 316°
2026-04-24 14:15 29.03767 48.61356 39925 ft 449 kts 316°
2026-04-24 14:16 29.08073 48.58042 39925 ft 449 kts 316°
2026-04-24 14:17 29.16681 48.51406 39921 ft 449 kts 316°
2026-04-24 14:17 29.23571 48.46085 39926 ft 449 kts 316°
2026-04-24 14:18 29.28749 48.42081 39921 ft 449 kts 316°
2026-04-24 14:18 29.34767 48.37421 39924 ft 449 kts 316°
2026-04-24 14:19 29.39105 48.34058 39931 ft 449 kts 316°
2026-04-24 14:19 29.44250 48.30065 39922 ft 451 kts 316°
2026-04-24 14:20 29.49667 48.26326 39916 ft 457 kts 321°
2026-04-24 14:20 29.56141 48.22228 39923 ft 457 kts 321°
2026-04-24 14:21 29.60798 48.19235 39916 ft 458 kts 321°
2026-04-24 14:21 29.66295 48.15633 39914 ft 458 kts 320°
2026-04-24 14:22 29.71814 48.11986 39917 ft 458 kts 320°
2026-04-24 14:23 29.80120 48.06482 39912 ft 461 kts 321°
2026-04-24 14:23 29.85677 48.02801 39914 ft 461 kts 321°
2026-04-24 14:24 29.91196 47.99143 39916 ft 461 kts 321°
2026-04-24 14:24 29.96761 47.95445 39911 ft 462 kts 321°
2026-04-24 14:25 30.02070 47.91406 39913 ft 449 kts 310°
2026-04-24 14:25 30.06382 47.86337 39926 ft 440 kts 303°
2026-04-24 14:26 30.10372 47.81060 39905 ft 439 kts 302°
2026-04-24 14:26 30.14339 47.75708 39913 ft 437 kts 302°
2026-04-24 14:27 30.18298 47.70382 39912 ft 437 kts 302°
2026-04-24 14:27 30.22265 47.65064 39913 ft 437 kts 302°
2026-04-24 14:28 30.26208 47.59780 39911 ft 437 kts 302°
2026-04-24 14:28 30.30173 47.54460 39904 ft 437 kts 302°
2026-04-24 14:29 30.34139 47.49131 39914 ft 436 kts 301°
2026-04-24 14:29 30.38096 47.43808 39903 ft 436 kts 301°
2026-04-24 14:30 30.42018 47.38522 39898 ft 436 kts 301°
2026-04-24 14:30 30.45969 47.33189 39909 ft 436 kts 301°
2026-04-24 14:31 30.49917 47.27857 39909 ft 435 kts 301°
2026-04-24 14:31 30.53851 47.22535 39911 ft 434 kts 301°
2026-04-24 14:32 30.57756 47.17247 39905 ft 434 kts 301°
2026-04-24 14:32 30.61692 47.11912 39913 ft 435 kts 301°
2026-04-24 14:33 30.65624 47.06567 39912 ft 435 kts 301°
2026-04-24 14:33 30.69559 47.01215 39908 ft 435 kts 301°
2026-04-24 14:34 30.73491 46.95862 39924 ft 436 kts 301°
2026-04-24 14:34 30.77397 46.90535 39908 ft 436 kts 301°
2026-04-24 14:35 30.81334 46.85160 39902 ft 436 kts 301°
2026-04-24 14:35 30.85268 46.79782 39898 ft 436 kts 301°
2026-04-24 14:36 30.89200 46.74400 39895 ft 437 kts 300°
2026-04-24 14:36 30.93107 46.69043 39895 ft 437 kts 300°
2026-04-24 14:37 30.97038 46.63646 39890 ft 437 kts 300°
2026-04-24 14:37 31.00968 46.58245 39895 ft 437 kts 300°
2026-04-24 14:38 31.04898 46.52834 39897 ft 437 kts 300°
2026-04-24 14:38 31.08802 46.47451 39894 ft 438 kts 300°
2026-04-24 14:39 31.12733 46.42024 39913 ft 438 kts 300°
2026-04-24 14:39 31.16662 46.36593 39888 ft 438 kts 300°
2026-04-24 14:40 31.20701 46.31245 39892 ft 446 kts 306°
2026-04-24 14:40 31.25342 46.26359 39892 ft 450 kts 308°
2026-04-24 14:41 31.30066 46.21613 39891 ft 451 kts 309°
2026-04-24 14:41 31.34832 46.16856 39890 ft 451 kts 309°
2026-04-24 14:42 31.39591 46.12081 39914 ft 450 kts 309°
2026-04-24 14:42 31.44335 46.07301 39895 ft 449 kts 309°
2026-04-24 14:43 31.49068 46.02522 39893 ft 449 kts 309°
2026-04-24 14:43 31.53767 45.97769 39921 ft 449 kts 309°
2026-04-24 14:44 31.58492 45.92984 39892 ft 449 kts 309°
2026-04-24 14:44 31.63213 45.88198 39895 ft 449 kts 309°
2026-04-24 14:45 31.67933 45.83406 39913 ft 449 kts 309°
2026-04-24 14:45 31.72619 45.78642 39895 ft 449 kts 309°
2026-04-24 14:46 31.77337 45.73837 39892 ft 449 kts 309°
2026-04-24 14:46 31.82057 45.69025 39919 ft 449 kts 309°
2026-04-24 14:47 31.86778 45.64205 39890 ft 450 kts 309°
2026-04-24 14:47 31.91474 45.59404 39888 ft 450 kts 309°
2026-04-24 14:48 31.96195 45.54570 39888 ft 450 kts 309°
2026-04-24 14:48 32.00920 45.49726 39885 ft 450 kts 309°
2026-04-24 14:49 32.05642 45.44878 39886 ft 450 kts 309°
2026-04-24 14:49 32.10361 45.40025 39896 ft 450 kts 309°
2026-04-24 14:50 32.15052 45.35194 39886 ft 451 kts 309°
2026-04-24 14:50 32.19779 45.30319 39884 ft 451 kts 309°
2026-04-24 14:51 32.24508 45.25436 39879 ft 451 kts 309°
2026-04-24 14:51 32.29198 45.20587 39875 ft 451 kts 309°
2026-04-24 14:52 32.33915 45.15703 39883 ft 451 kts 309°
2026-04-24 14:52 32.38639 45.10802 39883 ft 452 kts 309°
2026-04-24 14:53 32.43361 45.05898 39881 ft 451 kts 309°
2026-04-24 14:53 32.48078 45.00993 39897 ft 451 kts 309°
2026-04-24 14:54 32.52758 44.96117 39880 ft 451 kts 309°
2026-04-24 14:54 32.57472 44.91199 39879 ft 452 kts 309°
2026-04-24 14:55 32.62186 44.86274 39877 ft 452 kts 309°
2026-04-24 14:55 32.66897 44.81346 39875 ft 451 kts 309°
2026-04-24 14:56 32.71574 44.76447 39871 ft 451 kts 309°
2026-04-24 14:56 32.76281 44.71508 39871 ft 451 kts 309°
2026-04-24 14:57 32.80986 44.66564 39868 ft 451 kts 309°
2026-04-24 14:57 32.85687 44.61617 39872 ft 451 kts 309°
2026-04-24 14:58 32.90353 44.56698 39864 ft 451 kts 309°
2026-04-24 14:58 32.95056 44.51735 39863 ft 452 kts 309°
2026-04-24 14:59 32.99757 44.46767 39860 ft 452 kts 309°
2026-04-24 14:59 33.04452 44.41796 39884 ft 452 kts 309°
2026-04-24 15:00 33.09123 44.36842 39862 ft 453 kts 309°
2026-04-24 15:00 33.13869 44.31870 39868 ft 457 kts 312°
2026-04-24 15:01 33.19425 44.27886 39865 ft 478 kts 328°
2026-04-24 15:01 33.25840 44.25406 39856 ft 488 kts 335°
2026-04-24 15:02 33.32369 44.23284 39858 ft 490 kts 336°
2026-04-24 15:02 33.38953 44.21182 39857 ft 489 kts 335°
2026-04-24 15:03 33.45513 44.19044 39857 ft 488 kts 335°
2026-04-24 15:03 33.52056 44.16883 39856 ft 487 kts 335°
2026-04-24 15:04 33.58591 44.14713 39852 ft 487 kts 335°
2026-04-24 15:04 33.65083 44.12556 39854 ft 487 kts 335°
2026-04-24 15:05 33.71621 44.10382 39853 ft 487 kts 335°
2026-04-24 15:05 33.78159 44.08205 39853 ft 488 kts 335°
2026-04-24 15:06 33.84695 44.06025 39869 ft 488 kts 335°
2026-04-24 15:06 33.91192 44.03855 39853 ft 488 kts 335°
2026-04-24 15:07 33.97729 44.01668 39849 ft 487 kts 335°
2026-04-24 15:07 34.04264 43.99478 39848 ft 487 kts 335°
2026-04-24 15:08 34.10800 43.97284 39849 ft 487 kts 335°
2026-04-24 15:08 34.17328 43.95090 39845 ft 487 kts 335°
2026-04-24 15:09 34.23814 43.92906 39844 ft 487 kts 335°
2026-04-24 15:09 34.30339 43.90705 39863 ft 487 kts 335°
2026-04-24 15:10 34.36862 43.88502 39839 ft 486 kts 335°
2026-04-24 15:10 34.43381 43.86297 39834 ft 486 kts 335°
2026-04-24 15:11 34.49853 43.84103 39833 ft 486 kts 335°
2026-04-24 15:11 34.56363 43.81894 39844 ft 485 kts 335°
2026-04-24 15:12 34.62854 43.79688 39836 ft 484 kts 335°
2026-04-24 15:12 34.72536 43.76389 39833 ft 484 kts 335°
2026-04-24 15:13 34.79018 43.74176 39831 ft 483 kts 335°
2026-04-24 15:13 34.85486 43.71965 39832 ft 483 kts 335°
2026-04-24 15:14 34.91951 43.69750 39831 ft 483 kts 335°
2026-04-24 15:14 34.98371 43.67547 39843 ft 482 kts 335°
2026-04-24 15:15 35.04811 43.65337 39837 ft 480 kts 335°
2026-04-24 15:15 35.11243 43.63122 39845 ft 480 kts 335°
2026-04-24 15:16 35.17666 43.60908 39851 ft 479 kts 335°
2026-04-24 15:16 35.24017 43.58717 39834 ft 477 kts 335°
2026-04-24 15:17 35.30392 43.56511 39836 ft 476 kts 335°
2026-04-24 15:17 35.36763 43.54303 39834 ft 476 kts 335°
2026-04-24 15:18 35.43130 43.52093 39831 ft 474 kts 336°
2026-04-24 15:18 35.49470 43.49891 39838 ft 473 kts 335°
2026-04-24 15:19 35.55756 43.47702 39840 ft 473 kts 335°
2026-04-24 15:19 35.62085 43.45493 39862 ft 473 kts 336°
2026-04-24 15:20 35.68400 43.43289 39846 ft 471 kts 336°
2026-04-24 15:20 35.74691 43.41089 39845 ft 470 kts 336°
2026-04-24 15:21 35.80936 43.38900 39854 ft 470 kts 336°
2026-04-24 15:21 35.87216 43.36695 39862 ft 469 kts 336°
2026-04-24 15:22 35.93500 43.34485 39862 ft 470 kts 336°
2026-04-24 15:23 36.02926 43.31164 39860 ft 470 kts 336°
2026-04-24 15:23 36.12109 43.27404 39876 ft 460 kts 329°
2026-04-24 15:25 36.25749 43.19965 39882 ft 459 kts 328°
2026-04-24 15:26 36.41308 43.11356 39903 ft 460 kts 328°
2026-04-24 15:27 36.58819 43.01645 39908 ft 461 kts 328°
2026-04-24 15:29 36.76432 42.91828 39911 ft 462 kts 328°
2026-04-24 15:31 36.97070 42.80436 39919 ft 465 kts 328°
2026-04-24 15:33 37.20678 42.67255 39925 ft 462 kts 324°
2026-04-24 15:33 37.27905 42.59897 39949 ft 438 kts 303°
2026-04-24 15:34 37.31633 42.53931 39927 ft 436 kts 301°
2026-04-24 15:35 37.40706 42.38618 39921 ft 437 kts 300°
2026-04-24 15:36 37.44354 42.32502 39927 ft 437 kts 301°
2026-04-24 15:36 37.49799 42.23367 39924 ft 436 kts 300°
2026-04-24 15:37 37.53432 42.17241 39910 ft 436 kts 300°
2026-04-24 15:37 37.57067 42.11109 39916 ft 437 kts 300°
2026-04-24 15:38 37.60706 42.04957 39912 ft 438 kts 300°
2026-04-24 15:38 37.64318 41.98834 39908 ft 438 kts 300°
2026-04-24 15:39 37.67951 41.92672 39902 ft 438 kts 300°
2026-04-24 15:39 37.71582 41.86501 39899 ft 438 kts 300°
2026-04-24 15:40 37.75208 41.80324 39895 ft 438 kts 300°
2026-04-24 15:40 37.78813 41.74184 39902 ft 438 kts 300°
2026-04-24 15:41 37.82438 41.67995 39895 ft 438 kts 300°
2026-04-24 15:41 37.86059 41.61796 39890 ft 438 kts 300°
2026-04-24 15:42 37.89678 41.55591 39886 ft 437 kts 300°
2026-04-24 15:42 37.93282 41.49401 39881 ft 437 kts 300°
2026-04-24 15:43 37.96859 41.43247 39881 ft 437 kts 300°
2026-04-24 15:43 38.00457 41.37043 39883 ft 436 kts 300°
2026-04-24 15:44 38.04046 41.30847 39875 ft 436 kts 300°
2026-04-24 15:44 38.07606 41.24688 39881 ft 435 kts 300°
2026-04-24 15:45 38.11182 41.18487 39885 ft 435 kts 299°
2026-04-24 15:45 38.14426 41.12087 39876 ft 426 kts 290°
2026-04-24 15:46 38.16771 41.05215 39874 ft 423 kts 287°
2026-04-24 15:46 38.18927 40.98310 39879 ft 423 kts 286°
2026-04-24 15:47 38.21066 40.91349 39890 ft 422 kts 286°
2026-04-24 15:47 38.23208 40.84404 39883 ft 422 kts 286°
2026-04-24 15:48 38.25347 40.77451 39894 ft 422 kts 286°
2026-04-24 15:48 38.27438 40.70475 39914 ft 422 kts 285°
2026-04-24 15:49 38.29502 40.63537 39895 ft 422 kts 285°
2026-04-24 15:49 38.31586 40.56553 39892 ft 422 kts 285°
2026-04-24 15:50 38.33669 40.49569 39912 ft 422 kts 285°
2026-04-24 15:50 38.35748 40.42585 39904 ft 422 kts 285°
2026-04-24 15:51 38.37807 40.35646 39903 ft 422 kts 285°
2026-04-24 15:51 38.39875 40.28656 39904 ft 421 kts 285°